This is the latest recevied weather packets stored in our database for station/object IK2ILW-4. If no packets are shown the sender has not sent any weather packets the latest 10 day(s).
| Time | Temp. | Humidity | Pressure | Rain* | Wind** | Luminosity | Snow |
|---|---|---|---|---|---|---|---|
| 1778176369 | 8.33° C | 84% | 1014.6 hPa | 4.57 mm | - | 30 W/m² | - |
| 1778176065 | 8.33° C | 86% | 1014.6 hPa | 4.57 mm | - | 30 W/m² | - |
| 1778175761 | 7.78° C | 83% | 1014.4 hPa | 4.57 mm | - | 32 W/m² | - |
| 1778175458 | 7.78° C | 82% | 1014.4 hPa | 4.57 mm | - | 37 W/m² | - |
| 1778175159 | 7.78° C | 84% | 1014.4 hPa | 4.57 mm | - | 53 W/m² | - |
| 1778174859 | 7.78° C | 87% | 1014.4 hPa | 4.57 mm | - | 134 W/m² | - |
| 1778174558 | 7.78° C | 86% | 1014.4 hPa | 4.57 mm | - | 67 W/m² | - |
| 1778174255 | 7.78° C | 85% | 1014.4 hPa | 4.57 mm | - | 81 W/m² | - |
| 1778173954 | 7.22° C | 84% | 1014.6 hPa | 4.57 mm | - | 98 W/m² | - |
| 1778173668 | 7.22° C | 85% | 1014.6 hPa | 4.57 mm | - | 91 W/m² | - |
| 1778173366 | 7.22° C | 85% | 1014.6 hPa | 4.57 mm | - | 54 W/m² | - |
| 1778173063 | 7.22° C | 84% | 1014.5 hPa | 4.32 mm | - | 37 W/m² | - |
| 1778172763 | 7.78° C | 83% | 1014.5 hPa | 3.56 mm | - | 25 W/m² | - |
| 1778172463 | 7.22° C | 83% | 1014.5 hPa | 3.3 mm | - | 21 W/m² | - |
| 1778172162 | 7.78° C | 87% | 1014.5 hPa | 3.3 mm | - | 26 W/m² | - |
| 1778171858 | 7.78° C | 86% | 1014.5 hPa | 3.3 mm | - | 28 W/m² | - |
| 1778171554 | 7.78° C | 87% | 1014.5 hPa | 2.79 mm | - | 28 W/m² | - |
| 1778171253 | 7.78° C | 86% | 1014.3 hPa | 2.29 mm | - | 30 W/m² | - |
| 1778170950 | 8.33° C | 87% | 1014.3 hPa | 2.03 mm | - | 33 W/m² | - |
| 1778170669 | 8.33° C | 86% | 1014.3 hPa | 2.03 mm | - | 32 W/m² | - |
| 1778170365 | 8.89° C | 85% | 1014.1 hPa | 2.03 mm | - | 25 W/m² | - |
| 1778170061 | 9.44° C | 85% | 1014.1 hPa | 2.03 mm | - | 23 W/m² | - |
| 1778169757 | 9.44° C | 80% | 1014.1 hPa | 2.03 mm | - | 26 W/m² | - |
| 1778169457 | 9.44° C | 80% | 1014 hPa | 2.03 mm | - | 47 W/m² | - |
| 1778169160 | 9.44° C | 80% | 1014 hPa | 2.03 mm | - | 79 W/m² | - |
* Rain since midnight (hover to see other rain measurements)
** Current wind speed in m/s (hover to see current wind gust speed)